CST,Max TemperatureF,Mean TemperatureF,Min TemperatureF,Max Dew PointF,MeanDew PointF,Min DewpointF,Max Humidity, Mean Humidity, Min Humidity, Max Sea Level PressureIn, Mean Sea Level PressureIn, Min Sea Level PressureIn, Max VisibilityMiles, Mean VisibilityMiles, Min VisibilityMiles, Max Wind SpeedMPH, Mean Wind SpeedMPH, Max Gust SpeedMPH,PrecipitationIn, CloudCover, Events, WindDirDegrees
2012-12-1,86,77,68,68,65,61,94,74,43,30.16,30.10,30.03,10,9,3,16,7,23,0.00,4,Rain,172
2012-12-2,86,75,64,70,62,55,94,73,37,30.19,30.12,30.07,10,7,0,13,4,17,0.00,3,Fog,162
2012-12-3,82,74,66,68,63,57,94,73,42,30.10,30.05,29.99,10,7,0,16,6,24,0.00,4,Fog,170
2012-12-4,80,70,60,68,62,50,94,77,53,30.20,30.12,30.04,10,9,3,12,5,,0.00,4,Rain-Thunderstorm,258
2012-12-5,71,61,51,55,48,36,94,61,46,30.23,30.15,30.07,10,9,1,10,7,,0.00,1,,358
2012-12-6,73,66,59,61,57,52,94,79,47,30.07,29.96,29.87,10,6,0,13,4,9,0.00,5,Fog,150
2012-12-7,80,71,62,68,62,59,94,78,48,29.92,29.86,29.80,10,7,0,12,5,18,0.00,4,Fog-Rain,167
2012-12-8,82,73,64,72,65,61,94,78,48,29.92,29.86,29.81,10,6,0,15,4,21,0.00,4,Fog,176
2012-12-9,82,70,55,70,65,52,94,78,58,29.94,29.86,29.78,10,9,7,17,9,26,0.03,6,Rain-Thunderstorm,198
2012-12-10,55,46,37,52,28,18,88,50,32,30.15,30.07,29.92,10,10,7,30,15,40,0.00,3,Thunderstorm,337
2012-12-11,53,42,30,27,22,14,80,50,21,30.25,30.17,30.12,10,10,7,9,4,,0.00,0,,3
2012-12-12,62,46,30,32,23,14,87,50,16,30.36,30.28,30.24,10,10,7,7,1,,0.00,0,,87
2012-12-13,68,49,30,37,28,23,86,49,18,30.35,30.28,30.22,10,10,7,10,3,,0.00,1,,132
2012-12-14,73,62,50,64,52,37,78,67,58,30.22,30.07,29.90,10,10,10,16,6,23,0.00,7,,136
2012-12-15,78,73,68,68,60,46,94,69,36,29.98,29.91,29.86,10,9,5,10,5,,0.01,7,Rain,287
2012-12-16,73,64,55,70,61,52,94,82,56,29.86,29.81,29.77,10,9,2,28,3,18,0.62,3,Rain-Thunderstorm,249
2012-12-17,69,56,44,54,38,28,94,54,21,29.97,29.90,29.85,10,10,7,13,3,18,0.00,0,,276
2012-12-18,82,63,44,59,44,36,94,54,25,29.94,29.89,29.82,10,10,10,16,4,20,0.00,0,,180
2012-12-19,84,72,60,68,66,59,94,77,51,29.87,29.78,29.69,10,9,5,26,10,33,0.00,7,Rain,172
2012-12-20,77,56,35,68,18,5,74,29,12,30.47,30.26,29.81,10,9,3,31,19,47,0.00,1,,322
2012-12-21,64,47,30,27,16,3,75,37,10,30.53,30.44,30.38,10,10,10,7,2,,0.00,0,,228
2012-12-22,71,52,32,54,39,23,87,58,34,30.39,30.27,30.12,10,10,10,20,4,29,0.00,3,,167
2012-12-23,75,68,62,61,58,54,88,71,53,30.12,29.98,29.89,10,10,10,17,7,25,0.00,1,,200
2012-12-24,69,58,48,55,40,30,88,51,23,30.01,29.89,29.76,10,10,10,9,5,,0.00,1,,342
2012-12-25,73,54,35,68,43,25,94,64,28,30.13,29.79,29.55,10,9,3,33,11,46,0.19,5,Rain-Thunderstorm,303
2012-12-26,42,37,32,28,24,21,81,63,46,30.29,30.19,30.13,10,10,10,23,15,31,0.00,2,,331
2012-12-27,50,40,30,46,37,27,93,86,66,30.15,30.00,29.85,10,6,1,9,2,,0.17,6,Rain,85
2012-12-28,55,47,37,50,44,32,94,81,67,30.21,29.96,29.79,10,7,0,23,8,29,0.02,7,Fog-Rain,331
2012-12-29,50,41,32,32,28,23,87,63,35,30.47,30.39,30.22,10,10,10,14,8,22,0.00,0,,333
2012-12-30,53,42,30,41,30,27,87,64,38,30.49,30.39,30.24,10,10,10,10,3,16,0.00,2,,113
2012-12-31,64,57,50,61,54,43,94,89,76,30.22,30.05,29.95,10,3,0,12,6,16,0.08,8,Fog-Rain,113